Time,TemperatureF,DewpointF,PressureIn,WindDirection,WindDirectionDegrees,WindSpeedMPH,WindSpeedGustMPH,Humidity,HourlyPrecipIn,Conditions,Clouds,dailyrainin,SoftwareType,DateUTC
2013-03-18 00:01:00,55.0,43.0,30.02,WSW,243,0.0,2.0,65,0.00,,,0.00,,2013-03-18 07:01:00,
2013-03-18 00:11:00,55.0,43.0,30.02,WSW,243,0.0,2.0,65,0.00,,,0.00,,2013-03-18 07:11:00,
2013-03-18 00:22:00,53.0,43.0,30.02,WSW,240,0.0,1.0,68,0.00,,,0.00,,2013-03-18 07:22:00,
2013-03-18 00:31:00,52.0,43.0,30.02,WSW,240,0.0,0.0,71,0.00,,,0.00,,2013-03-18 07:31:00,
2013-03-18 00:42:00,52.0,43.0,30.02,WSW,240,0.0,0.0,71,0.00,,,0.00,,2013-03-18 07:42:00,
2013-03-18 00:52:00,51.0,42.0,30.03,WSW,240,0.0,0.0,71,0.00,,,0.00,,2013-03-18 07:52:00,
2013-03-18 01:01:00,49.0,42.0,30.03,WSW,240,0.0,0.0,77,0.00,,,0.00,,2013-03-18 08:01:00,
2013-03-18 01:11:00,49.0,42.0,30.03,WSW,240,0.0,0.0,77,0.00,,,0.00,,2013-03-18 08:11:00,
2013-03-18 01:21:00,49.0,42.0,30.03,WSW,240,0.0,0.0,77,0.00,,,0.00,,2013-03-18 08:21:00,
2013-03-18 01:32:00,49.0,42.0,30.03,WSW,240,0.0,0.0,76,0.00,,,0.00,,2013-03-18 08:32:00,
2013-03-18 01:42:00,49.0,42.0,30.03,WSW,240,0.0,0.0,76,0.00,,,0.00,,2013-03-18 08:42:00,
2013-03-18 01:52:00,49.0,42.0,30.03,WSW,240,0.0,0.0,76,0.00,,,0.00,,2013-03-18 08:52:00,
2013-03-18 02:01:00,48.0,42.0,30.03,SE,131,0.0,2.0,81,0.00,,,0.00,,2013-03-18 09:01:00,
2013-03-18 02:11:00,48.0,42.0,30.03,SE,131,0.0,2.0,81,0.00,,,0.00,,2013-03-18 09:11:00,
2013-03-18 02:22:00,47.0,41.0,30.03,SE,134,0.0,0.0,80,0.00,,,0.00,,2013-03-18 09:22:00,
2013-03-18 02:32:00,47.0,41.0,30.03,SE,134,0.0,1.0,81,0.00,,,0.00,,2013-03-18 09:32:00,
2013-03-18 02:42:00,47.0,41.0,30.03,SE,134,0.0,1.0,81,0.00,,,0.00,,2013-03-18 09:42:00,
2013-03-18 02:53:00,47.0,42.0,30.04,SE,134,0.0,0.0,83,0.00,,,0.00,,2013-03-18 09:53:00,
2013-03-18 03:02:00,47.0,42.0,30.04,SW,215,0.0,2.0,82,0.00,,,0.00,,2013-03-18 10:02:00,
2013-03-18 03:12:00,47.0,42.0,30.04,SW,215,0.0,2.0,82,0.00,,,0.00,,2013-03-18 10:12:00,
2013-03-18 03:23:00,47.0,42.0,30.04,South,191,0.0,0.0,82,0.00,,,0.00,,2013-03-18 10:23:00,
2013-03-18 03:32:00,47.0,42.0,30.04,South,191,0.0,0.0,82,0.00,,,0.00,,2013-03-18 10:32:00,
2013-03-18 03:41:00,47.0,42.0,30.04,South,191,0.0,0.0,82,0.00,,,0.00,,2013-03-18 10:41:00,
2013-03-18 03:53:00,47.0,42.0,30.03,SE,131,1.0,2.0,82,0.00,,,0.00,,2013-03-18 10:53:00,
2013-03-18 04:02:00,48.0,43.0,30.02,SE,131,0.0,1.0,82,0.00,,,0.00,,2013-03-18 11:02:00,
2013-03-18 04:12:00,48.0,43.0,30.02,SE,131,0.0,1.0,82,0.00,,,0.00,,2013-03-18 11:12:00,
2013-03-18 04:21:00,47.0,42.0,30.02,SE,131,0.0,1.0,83,0.00,,,0.00,,2013-03-18 11:21:00,
2013-03-18 04:31:00,46.0,41.0,30.01,ESE,117,1.0,2.0,83,0.00,,,0.00,,2013-03-18 11:31:00,
2013-03-18 04:42:00,46.0,41.0,30.01,ESE,117,1.0,2.0,83,0.00,,,0.00,,2013-03-18 11:42:00,
2013-03-18 04:52:00,46.0,41.0,30.01,ESE,117,1.0,2.0,83,0.00,,,0.00,,2013-03-18 11:52:00,
2013-03-18 05:01:00,45.0,41.0,30.02,SE,137,0.0,0.0,85,0.00,,,0.00,,2013-03-18 12:01:00,
2013-03-18 05:12:00,45.0,41.0,30.02,SE,137,0.0,0.0,85,0.00,,,0.00,,2013-03-18 12:12:00,
2013-03-18 05:22:00,44.0,40.0,30.01,SE,136,0.0,0.0,87,0.00,,,0.00,,2013-03-18 12:22:00,
2013-03-18 05:32:00,44.0,41.0,30.01,SE,135,0.0,1.0,89,0.00,,,0.00,,2013-03-18 12:32:00,
2013-03-18 05:42:00,44.0,41.0,30.01,SE,135,0.0,1.0,89,0.00,,,0.00,,2013-03-18 12:42:00,
2013-03-18 05:52:00,44.0,41.0,30.02,SE,143,0.0,2.0,88,0.00,,,0.00,,2013-03-18 12:52:00,
2013-03-18 06:01:00,44.0,41.0,30.02,SE,143,0.0,2.0,88,0.00,,,0.00,,2013-03-18 13:01:00,
2013-03-18 06:11:00,44.0,41.0,30.02,SE,143,0.0,2.0,88,0.00,,,0.00,,2013-03-18 13:11:00,
2013-03-18 06:21:00,44.0,40.0,30.04,SE,141,0.0,0.0,87,0.00,,,0.00,,2013-03-18 13:21:00,
2013-03-18 06:31:00,43.0,39.0,30.03,SE,141,0.0,0.0,87,0.00,,,0.00,,2013-03-18 13:31:00,
2013-03-18 06:42:00,43.0,39.0,30.03,SE,141,0.0,0.0,87,0.00,,,0.00,,2013-03-18 13:42:00,
2013-03-18 06:52:00,43.0,40.0,30.04,SE,141,0.0,0.0,88,0.00,,,0.00,,2013-03-18 13:52:00,
2013-03-18 07:02:00,43.0,40.0,30.04,SE,141,0.0,0.0,88,0.00,,,0.00,,2013-03-18 14:02:00,
2013-03-18 07:11:00,43.0,40.0,30.04,SE,141,0.0,0.0,88,0.00,,,0.00,,2013-03-18 14:11:00,
2013-03-18 07:21:00,43.0,40.0,30.05,SE,141,0.0,0.0,88,0.00,,,0.00,,2013-03-18 14:21:00,
2013-03-18 07:32:00,43.0,40.0,30.06,SE,141,0.0,0.0,88,0.00,,,0.00,,2013-03-18 14:32:00,
2013-03-18 07:42:00,43.0,40.0,30.06,SE,141,0.0,0.0,88,0.00,,,0.00,,2013-03-18 14:42:00,
2013-03-18 08:01:00,45.0,41.0,30.06,SE,141,0.0,0.0,86,0.00,,,0.00,,2013-03-18 15:01:00,
2013-03-18 08:12:00,45.0,41.0,30.06,SE,141,0.0,0.0,86,0.00,,,0.00,,2013-03-18 15:12:00,
2013-03-18 08:22:00,47.0,42.0,30.06,SE,141,0.0,0.0,82,0.00,,,0.00,,2013-03-18 15:22:00,
2013-03-18 08:32:00,47.0,42.0,30.06,SE,141,0.0,0.0,82,0.00,,,0.00,,2013-03-18 15:32:00,
2013-03-18 08:42:00,47.0,42.0,30.06,SE,141,0.0,0.0,82,0.00,,,0.00,,2013-03-18 15:42:00,
2013-03-18 08:52:00,52.0,45.0,30.08,SE,124,0.0,2.0,76,0.00,,,0.00,,2013-03-18 15:52:00,
2013-03-18 09:02:00,53.0,46.0,30.08,ESE,117,0.0,2.0,76,0.00,,,0.00,,2013-03-18 16:02:00,
2013-03-18 09:22:00,54.0,45.0,30.08,ESE,116,0.0,2.0,71,0.00,,,0.00,,2013-03-18 16:22:00,
2013-03-18 09:32:00,56.0,46.0,30.08,East,88,0.0,2.0,68,0.00,,,0.00,,2013-03-18 16:32:00,
2013-03-18 09:42:00,56.0,46.0,30.08,East,88,0.0,2.0,68,0.00,,,0.00,,2013-03-18 16:42:00,
2013-03-18 09:52:00,56.0,44.0,30.08,ENE,67,1.0,3.0,63,0.00,,,0.00,,2013-03-18 16:52:00,
2013-03-18 10:02:00,57.0,43.0,30.09,NNE,27,1.0,2.0,60,0.00,,,0.00,,2013-03-18 17:02:00,
2013-03-18 10:11:00,57.0,43.0,30.09,NNE,27,1.0,2.0,60,0.00,,,0.00,,2013-03-18 17:11:00,
2013-03-18 10:22:00,59.0,44.0,30.09,NE,51,1.0,5.0,58,0.00,,,0.00,,2013-03-18 17:22:00,
2013-03-18 10:32:00,60.0,44.0,30.09,SW,214,0.0,4.0,55,0.00,,,0.00,,2013-03-18 17:32:00,
2013-03-18 10:42:00,60.0,44.0,30.09,SW,214,0.0,4.0,55,0.00,,,0.00,,2013-03-18 17:42:00,
2013-03-18 10:52:00,59.0,42.0,30.09,WNW,283,2.0,5.0,54,0.00,,,0.00,,2013-03-18 17:52:00,
2013-03-18 11:01:00,60.0,43.0,30.09,NE,54,1.0,4.0,53,0.00,,,0.00,,2013-03-18 18:01:00,
2013-03-18 11:11:00,60.0,43.0,30.09,NE,54,1.0,4.0,53,0.00,,,0.00,,2013-03-18 18:11:00,
2013-03-18 11:21:00,60.0,43.0,30.09,NE,41,0.0,5.0,53,0.00,,,0.00,,2013-03-18 18:21:00,
2013-03-18 11:42:00,61.0,44.0,30.09,SW,224,1.0,6.0,53,0.00,,,0.00,,2013-03-18 18:42:00,
2013-03-18 11:52:00,63.0,42.0,30.09,NE,48,1.0,4.0,47,0.00,,,0.00,,2013-03-18 18:52:00,
2013-03-18 12:02:00,64.0,43.0,30.08,NNW,333,2.0,4.0,47,0.00,,,0.00,,2013-03-18 19:02:00,
2013-03-18 12:11:00,64.0,43.0,30.08,NNW,333,2.0,4.0,47,0.00,,,0.00,,2013-03-18 19:11:00,
2013-03-18 12:22:00,63.0,42.0,30.07,NNW,343,1.0,5.0,46,0.00,,,0.00,,2013-03-18 19:22:00,
2013-03-18 12:32:00,64.0,41.0,30.06,West,280,0.0,5.0,43,0.00,,,0.00,,2013-03-18 19:32:00,
2013-03-18 12:42:00,64.0,41.0,30.06,West,280,0.0,5.0,43,0.00,,,0.00,,2013-03-18 19:42:00,
2013-03-18 12:52:00,65.0,42.0,30.06,WSW,258,0.0,4.0,43,0.00,,,0.00,,2013-03-18 19:52:00,
2013-03-18 13:02:00,66.0,42.0,30.06,SW,225,1.0,5.0,42,0.00,,,0.00,,2013-03-18 20:02:00,
2013-03-18 13:11:00,66.0,42.0,30.06,SW,225,1.0,5.0,42,0.00,,,0.00,,2013-03-18 20:11:00,
2013-03-18 13:22:00,67.0,42.0,30.06,WNW,300,1.0,3.0,40,0.00,,,0.00,,2013-03-18 20:22:00,
2013-03-18 13:32:00,67.0,42.0,30.06,SSW,205,0.0,3.0,40,0.00,,,0.00,,2013-03-18 20:32:00,
2013-03-18 13:42:00,67.0,42.0,30.06,SSW,205,0.0,3.0,40,0.00,,,0.00,,2013-03-18 20:42:00,
2013-03-18 13:52:00,68.0,41.0,30.05,NNE,18,0.0,5.0,38,0.00,,,0.00,,2013-03-18 20:52:00,
2013-03-18 14:02:00,69.0,41.0,30.04,WNW,293,1.0,5.0,36,0.00,,,0.00,,2013-03-18 21:02:00,
2013-03-18 14:11:00,69.0,41.0,30.04,WNW,293,1.0,5.0,36,0.00,,,0.00,,2013-03-18 21:11:00,
2013-03-18 14:22:00,69.0,42.0,30.04,West,260,1.0,5.0,37,0.00,,,0.00,,2013-03-18 21:22:00,
2013-03-18 14:32:00,70.0,43.0,30.02,SW,228,1.0,4.0,38,0.00,,,0.00,,2013-03-18 21:32:00,
2013-03-18 14:42:00,70.0,43.0,30.02,SW,228,1.0,4.0,38,0.00,,,0.00,,2013-03-18 21:42:00,
2013-03-18 14:52:00,70.0,44.0,30.02,SW,232,0.0,3.0,39,0.00,,,0.00,,2013-03-18 21:52:00,
2013-03-18 15:02:00,70.0,43.0,30.02,NNE,13,1.0,4.0,37,0.00,,,0.00,,2013-03-18 22:02:00,
2013-03-18 15:12:00,70.0,43.0,30.02,NNE,13,1.0,4.0,37,0.00,,,0.00,,2013-03-18 22:12:00,
2013-03-18 15:22:00,70.0,43.0,30.01,WSW,250,1.0,4.0,37,0.00,,,0.00,,2013-03-18 22:22:00,
2013-03-18 15:32:00,71.0,42.0,30.01,SW,222,0.0,3.0,35,0.00,,,0.00,,2013-03-18 22:32:00,
2013-03-18 15:41:00,71.0,42.0,30.01,SW,222,0.0,3.0,35,0.00,,,0.00,,2013-03-18 22:41:00,
2013-03-18 15:52:00,71.0,42.0,30.01,SW,218,0.0,2.0,35,0.00,,,0.00,,2013-03-18 22:52:00,
2013-03-18 16:02:00,70.0,40.0,30.01,West,264,1.0,5.0,34,0.00,,,0.00,,2013-03-18 23:02:00,
2013-03-18 16:11:00,70.0,40.0,30.01,West,264,1.0,5.0,34,0.00,,,0.00,,2013-03-18 23:11:00,
2013-03-18 16:22:00,70.0,40.0,30.01,WSW,242,1.0,4.0,34,0.00,,,0.00,,2013-03-18 23:22:00,
2013-03-18 16:32:00,69.0,41.0,30.01,SW,215,1.0,4.0,36,0.00,,,0.00,,2013-03-18 23:32:00,
2013-03-18 16:42:00,69.0,41.0,30.01,SW,215,1.0,4.0,36,0.00,,,0.00,,2013-03-18 23:42:00,
2013-03-18 16:52:00,69.0,42.0,30.01,WSW,246,2.0,4.0,37,0.00,,,0.00,,2013-03-18 23:52:00,
2013-03-18 17:02:00,69.0,41.0,30.01,WSW,257,1.0,4.0,36,0.00,,,0.00,,2013-03-19 00:02:00,
2013-03-18 17:11:00,69.0,41.0,30.01,WSW,257,1.0,4.0,36,0.00,,,0.00,,2013-03-19 00:11:00,
2013-03-18 17:22:00,69.0,41.0,30.01,WSW,246,1.0,3.0,36,0.00,,,0.00,,2013-03-19 00:22:00,
2013-03-18 17:32:00,70.0,42.0,30.00,WSW,248,0.0,3.0,36,0.00,,,0.00,,2013-03-19 00:32:00,
2013-03-18 17:42:00,70.0,42.0,30.00,WSW,248,0.0,3.0,36,0.00,,,0.00,,2013-03-19 00:42:00,
2013-03-18 17:52:00,70.0,41.0,30.00,SSW,211,0.0,4.0,35,0.00,,,0.00,,2013-03-19 00:52:00,
2013-03-18 18:01:00,70.0,40.0,29.99,WSW,242,0.0,1.0,34,0.00,,,0.00,,2013-03-19 01:01:00,
2013-03-18 18:11:00,70.0,40.0,29.99,WSW,242,0.0,1.0,34,0.00,,,0.00,,2013-03-19 01:11:00,
2013-03-18 18:21:00,70.0,40.0,29.99,WSW,242,0.0,1.0,34,0.00,,,0.00,,2013-03-19 01:21:00,
2013-03-18 18:31:00,68.0,39.0,29.99,SE,138,0.0,2.0,35,0.00,,,0.00,,2013-03-19 01:31:00,
2013-03-18 18:42:00,68.0,39.0,29.99,SE,138,0.0,2.0,35,0.00,,,0.00,,2013-03-19 01:42:00,
2013-03-18 18:52:00,68.0,40.0,29.98,SE,126,0.0,1.0,36,0.00,,,0.00,,2013-03-19 01:52:00,
2013-03-18 19:02:00,68.0,41.0,29.99,SE,126,0.0,1.0,37,0.00,,,0.00,,2013-03-19 02:02:00,
2013-03-18 19:11:00,68.0,41.0,29.99,SE,126,0.0,1.0,37,0.00,,,0.00,,2013-03-19 02:11:00,
2013-03-18 19:21:00,67.0,41.0,29.99,ESE,123,1.0,2.0,38,0.00,,,0.00,,2013-03-19 02:21:00,
2013-03-18 19:32:00,66.0,42.0,30.00,SW,235,0.0,2.0,41,0.00,,,0.00,,2013-03-19 02:32:00,
2013-03-18 19:41:00,66.0,42.0,30.00,SW,235,0.0,2.0,41,0.00,,,0.00,,2013-03-19 02:41:00,
2013-03-18 19:52:00,66.0,42.0,30.00,SW,235,0.0,2.0,41,0.00,,,0.00,,2013-03-19 02:52:00,
2013-03-18 20:01:00,65.0,43.0,30.00,SE,132,0.0,1.0,44,0.00,,,0.00,,2013-03-19 03:01:00,
2013-03-18 20:11:00,65.0,43.0,30.00,SE,132,0.0,1.0,44,0.00,,,0.00,,2013-03-19 03:11:00,
2013-03-18 20:22:00,65.0,43.0,30.01,SE,132,0.0,1.0,45,0.00,,,0.00,,2013-03-19 03:22:00,
2013-03-18 20:32:00,64.0,41.0,30.01,WSW,240,0.0,1.0,43,0.00,,,0.00,,2013-03-19 03:32:00,
2013-03-18 20:42:00,64.0,41.0,30.01,WSW,240,0.0,1.0,43,0.00,,,0.00,,2013-03-19 03:42:00,
2013-03-18 20:53:00,64.0,42.0,30.01,WSW,245,0.0,2.0,44,0.00,,,0.00,,2013-03-19 03:53:00,
2013-03-18 21:02:00,64.0,42.0,30.02,SSW,201,1.0,3.0,44,0.00,,,0.00,,2013-03-19 04:02:00,
2013-03-18 21:12:00,64.0,42.0,30.02,SSW,201,1.0,3.0,44,0.00,,,0.00,,2013-03-19 04:12:00,
2013-03-18 21:22:00,64.0,43.0,30.02,WSW,257,2.0,4.0,47,0.00,,,0.00,,2013-03-19 04:22:00,
2013-03-18 21:32:00,63.0,43.0,30.02,SW,225,2.0,5.0,48,0.00,,,0.00,,2013-03-19 04:32:00,
2013-03-18 21:42:00,63.0,43.0,30.02,SW,225,2.0,5.0,48,0.00,,,0.00,,2013-03-19 04:42:00,
2013-03-18 21:52:00,63.0,44.0,30.02,WSW,240,1.0,5.0,50,0.00,,,0.00,,2013-03-19 04:52:00,
2013-03-18 22:02:00,62.0,45.0,30.02,SW,218,0.0,1.0,53,0.00,,,0.00,,2013-03-19 05:02:00,
2013-03-18 22:11:00,62.0,45.0,30.02,SW,218,0.0,1.0,53,0.00,,,0.00,,2013-03-19 05:11:00,
2013-03-18 22:22:00,62.0,46.0,30.04,SW,222,2.0,6.0,56,0.00,,,0.00,,2013-03-19 05:22:00,
2013-03-18 22:32:00,61.0,46.0,30.03,WSW,246,3.0,6.0,57,0.00,,,0.00,,2013-03-19 05:32:00,
2013-03-18 22:42:00,61.0,46.0,30.03,WSW,246,3.0,6.0,57,0.00,,,0.00,,2013-03-19 05:42:00,
2013-03-18 22:52:00,60.0,44.0,30.04,SW,228,5.0,9.0,56,0.00,,,0.00,,2013-03-19 05:52:00,
2013-03-18 23:01:00,59.0,44.0,30.05,West,264,2.0,11.0,58,0.00,,,0.00,,2013-03-19 06:01:00,
2013-03-18 23:11:00,59.0,44.0,30.05,West,264,2.0,11.0,58,0.00,,,0.00,,2013-03-19 06:11:00,
2013-03-18 23:21:00,59.0,45.0,30.05,SSW,205,3.0,6.0,59,0.00,,,0.00,,2013-03-19 06:21:00,
2013-03-18 23:31:00,58.0,44.0,30.05,SW,226,2.0,6.0,60,0.00,,,0.00,,2013-03-19 06:31:00,
2013-03-18 23:42:00,58.0,44.0,30.05,SW,226,2.0,6.0,60,0.00,,,0.00,,2013-03-19 06:42:00,
2013-03-18 23:52:00,58.0,45.0,30.06,WSW,239,1.0,3.0,63,0.00,,,0.00,,2013-03-19 06:52:00,